This demonstration page uses our WeatherBlox Daily Observations layout. Learn more.

Left ArrowRight Arrow

Hourly Observations for August 17, 2022

Temp ( °F °C ) Dew Point ( °F °C ) Humidity (%) Winds ( mph kmh ) Pressure ( in mb ) Visibility ( mi km ) Precip ( " mm )
1:53 am 01:53 Clear 73 22.8 69 20.6 87 87 NNE 6 9 29.91 1013 9 14 0.00 0.00
2:53 am 02:53 Clear 73 22.8 69 20.6 87 87 ENE 6 9 29.91 1013 9 14 0.00 0.00
3:53 am 03:53 Clear 73 22.8 68 20 84 84 ENE 7 11 29.91 1013 9 14 0.00 0.00
4:53 am 04:53 Clear 72 22.2 67 19.4 84 84 E 6 9 29.93 1014 10 16 0.00 0.00
5:53 am 05:53 Clear 72 22.2 66 18.9 82 82 E 8 13 29.93 1014 10 16 0.00 0.00
6:53 am 06:53 Clear 72 22.2 66 18.9 82 82 E 8 13 29.94 1014 10 16 0.00 0.00
7:53 am 07:53 Sunny 72 22.2 67 19.4 84 84 E 9 15 29.96 1015 10 16 0.00 0.00
8:53 am 08:53 Partly Cloudy 74 23.3 68 20 82 82 ESE 13 20 29.97 1015 10 16 0.00 0.00
9:53 am 09:53 Sunny 76 24.4 69 20.6 79 79 SE 10 17 29.98 1015 10 16 0.00 0.00
10:53 am 10:53 Mostly Sunny 78 25.6 70 21.1 76 76 ESE 14 22 29.98 1015 10 16 0.00 0.00
11:53 am 11:53 Mostly Cloudy 81 27.2 70 21.1 69 69 E 9 15 29.98 1015 10 16 0.00 0.00
12:03 pm 12:03 Mostly Cloudy 81 27.2 70 21.1 69 69 E 12 19 29.93 1013 10 16 0.00 0.00
12:53 pm 12:53 Mostly Cloudy 82 27.8 69 20.6 65 65 ESE 12 19 29.96 1015 10 16 0.00 0.00
1:53 pm 13:53 Mostly Sunny 84 28.9 67 19.4 57 57 SE 8 13 29.94 1014 10 16 0.00 0.00
2:53 pm 14:53 Mostly Cloudy 80 26.7 68 20 67 67 E 23 37 29.94 1014 10 16 0.00 0.00
3:12 pm 15:12 Partly Cloudy with Nearby Thunderstorms 82 27.8 64 17.8 55 55 E 15 24 29.87 1012 10 16 0.00 0.00
3:27 pm 15:27 Mostly Sunny 80 26.7 66 18.9 62 62 ESE 6 9 29.88 1012 10 16 0.00 0.00
3:53 pm 15:53 Sunny 83 28.3 63 17.2 51 51 ESE 8 13 29.92 1013 10 16 0.00 0.00
4:53 pm 16:53 Sunny 86 30 65 18.3 50 50 ESE 8 13 29.88 1012 10 16 0.00 0.00
5:53 pm 17:53 Sunny 88 31.1 64 17.8 45 45 SE 12 19 29.87 1011 10 16 0.00 0.00
6:53 pm 18:53 Sunny 88 31.1 63 17.2 43 43 SE 10 17 29.85 1011 10 16 0.00 0.00
7:53 pm 19:53 Sunny 85 29.4 61 16.1 45 45 SSE 9 15 29.86 1011 10 16 0.00 0.00
8:53 pm 20:53 Clear 82 27.8 67 19.4 60 60 SSE 3 6 29.87 1012 10 16 0.00 0.00
9:53 pm 21:53 Partly Cloudy 81 27.2 64 17.8 57 57 SSE 5 7 29.89 1012 10 16 0.00 0.00
10:53 pm 22:53 Mostly Cloudy 81 27.2 63 17.2 54 54 ENE 9 15 29.90 1013 10 16 0.00 0.00
11:53 pm 23:53 Mostly Clear 78 25.6 63 17.2 60 60 E 12 19 29.91 1013 10 16 0.00 0.00

Powered by AerisWeather